Regional Weather Roundup
Issued by NWS

Home | Current Version | Previous Version | Graphics & Text | Print | Product List | Glossary On
Versions: 1 2 3 4 5 6 7 8 9 10 11 12 13 14 15 16 17 18 19 20 21 22 23 24 25 26 27 28 29 30 31 32 33 34 35 36 37 38 39 40 41 42 43 44 45 46 47 48 49 50
000
ASUS43 KDMX 052307
RWRIA

WEATHER ROUNDUP FOR IOWA
NATIONAL WEATHER SERVICE DES MOINES IA
500 PM CST THU MAR 05 2015

NOTE: "FAIR" INDICATES FEW OR NO CLOUDS BELOW 12,000 FEET WITH NO
SIGNIFICANT WEATHER AND/OR OBSTRUCTIONS TO VISIBILITY.

* - THESE STATIONS ARE NOT NWS STATIONS...THUS NOT UNDER NWS
QUALITY CONTROL.  THEY ALSO DO NOT REPORT WEATHER SUCH
AS PRECIPITATION OR FOG.

IAZ001>003-012>014-020>022-031>034-043>046-060000-
   NORTHWEST IOWA

CITY           SKY/WX    TMP DP  RH WIND       PRES   REMARKS
CARROLL *      SUNNY     23   3  42 S9        30.42F WCI  13
CHEROKEE *     SUNNY     25   7  46 S8        30.37F WCI  16
DENISON *      SUNNY     25   5  42 S12       30.38F WCI  14
LE MARS *      SUNNY     30   5  34 S16       30.34F WCI  19
ORANGE CITY *  SUNNY     28   3  34 S14       30.32F WCI  17
SHELDON *      SUNNY     25   3  39 S15       30.32F WCI  12
SIOUX CITY     SUNNY     33   4  29 S13       30.35F WCI  24
SPENCER        SUNNY     22   5  48 S9        30.37F WCI  12
STORM LAKE *   SUNNY     23   5  46 SW13      30.37F WCI  11
$$

IAZ055>058-069>071-079>083-090>094-060000-
   SOUTHWEST IOWA

CITY           SKY/WX    TMP DP  RH WIND       PRES   REMARKS
ATLANTIC *     SUNNY     27   3  36 S9        30.43F WCI  17
AUDUBON *      SUNNY     25   1  36 S8        30.42F WCI  16
CLARINDA *     SUNNY     28   1  31 S8        30.47S WCI  20
COUNCIL BLFS * SUNNY     28   5  37 S10       30.39F WCI  19
CRESTON *      SUNNY     25  -2  30 S5        30.45S WCI  19
HARLAN  *      SUNNY     27   5  39 S12       30.45S WCI  16
LAMONI         SUNNY     24   2  38 W5        30.47S WCI  18
RED OAK *      SUNNY     28   1  31 S12       30.44F WCI  18
SHENANDOAH *   SUNNY     30   1  29 S12       30.46S WCI  21
$$

IAZ047>049-059>061-072>074-084-060000-
   CENTRAL IOWA

CITY           SKY/WX    TMP DP  RH WIND       PRES   REMARKS
AMES           SUNNY     17   2  51 S6        30.48S WCI   9
ANKENY *       SUNNY     21   0  39 CALM      30.49F
CHARITON *     SUNNY     23   1  39 S7        30.48S WCI  15
DES MOINES     SUNNY     21  -1  38 SW6       30.49S WCI  13
GRINNELL*      SUNNY     14   1  57 S3        30.50F
KNOXVILLE *    SUNNY     19   0  42 CALM      30.49S
MARSHALLTOWN   SUNNY     12  -1  56 S3        30.49S
PELLA *        SUNNY     21   7  53 SE3       30.52F
PERRY *          N/A     23   7  50 S7        30.46F WCI  15
$$

IAZ004>006-015-016-023>025-035-036-060000-
   NORTH CENTRAL IOWA

CITY           SKY/WX    TMP DP  RH WIND       PRES   REMARKS
ALGONA *       SUNNY     19 N/A N/A S14       30.41S WCI   6
CLARION *      SUNNY     16   7  67 S12       30.44F WCI   3
ESTHERVILLE    SUNNY     18   3  52 S12       30.37F WCI   5
FORT DODGE *   SUNNY     19   5  53 S9        30.44F WCI   9
MASON CITY     SUNNY     12   3  67 S8        30.44F WCI   0
FOREST CITY *  SUNNY     16   3  57 S9        30.42S WCI   4
IOWA FALLS *     N/A     14   3  62 S7        30.47F HAZE    WCI   4
$$

IAZ007>011-017>019-026>030-037>042-050>054-066-060000-
   NORTHEAST IOWA

CITY           SKY/WX    TMP DP  RH WIND       PRES   REMARKS
CEDAR RAPIDS   SUNNY      9   0  67 W6        30.52S WCI  -1
CHARLES CITY * SUNNY      9   0  66 S7        30.47F WCI  -3
CLINTON *      CLEAR     10   0  61 NW8       30.56S WCI  -1
DECORAH *      CLEAR      9  -4  56 VRB6      30.45F WCI  -1
DUBUQUE        CLEAR      8  -3  61 W10       30.48S WCI  -6
MONTICELLO *   CLEAR     10  -2  56 W6        30.52S WCI   1
OELWEIN *      SUNNY      9  -2  61 W5        30.49S WCI   0
WATERLOO       SUNNY     10  -1  61 W5        30.50S WCI   2
$$

IAZ064-065-067-068-078-060000-
   EAST CENTRAL IOWA

CITY           SKY/WX    TMP DP  RH WIND       PRES   REMARKS
DAVENPORT      CLEAR     11  -2  56 W6        30.54S WCI   1
IOWA CITY      SUNNY     12  -1  56 W7        30.56S WCI   1
MT. PLEASANT * SUNNY     16   0  48 CALM      30.55S
MUSCATINE *    SUNNY     14   0  52 NW6       30.57S WCI   5
QUAD CITIES    CLEAR     14  -1  51 W5        30.54F WCI   6
$$

IAZ062-063-075>077-085>089-095>099-060000-
   SOUTHEAST IOWA

CITY           SKY/WX    TMP DP  RH WIND       PRES   REMARKS
BURLINGTON     SUNNY     15   0  51 CALM      30.54S
FAIRFIELD *    SUNNY     16   0  48 N3        30.54S
FORT MADISON * SUNNY     16   3  57 N5        30.55S WCI   9
KEOKUK *       SUNNY     18   3  53 CALM      30.54S
OSKALOOSA *      N/A     18   3  53 NW3       30.52S
CENTERVILLE *  SUNNY     21   3  45 S5        30.51S WCI  15
OTTUMWA        SUNNY     19   0  43 CALM      30.52S
WASHINGTON *   SUNNY     14   1  57 NW6       30.54F WCI   5
$$

ABBREVIATIONS USED IN REMARKS
   TC - TEMPERATURES IN CELSIUS
  WCI - WIND CHILL INDEX
   HX - HEAT INDEX
  VSB - VISIBILITY
$$




USA.gov is the U.S. government's official web portal to all federal, state and local government web resources and services.